IRIDIUM 106 1 41917U 17003A 25346.95308174 .00000044 00000+0 84954-5 0 9992 2 41917 86.3985 166.3649 0002308 99.6416 260.5041 14.34217852466513 IRIDIUM 103 1 41918U 17003B 25347.01015490 .00000191 00000+0 61239-4 0 9990 2 41918 86.3984 166.2417 0001570 96.3197 263.8178 14.34217422466548 IRIDIUM 109 1 41919U 17003C 25347.01651917 .00000149 00000+0 45969-4 0 9996 2 41919 86.3987 166.2952 0001871 91.8919 268.2492 14.34220013466517 IRIDIUM 102 1 41920U 17003D 25346.98479118 .00000150 00000+0 46501-4 0 9999 2 41920 86.3985 166.2363 0001991 87.5321 272.6102 14.34217977466595 IRIDIUM 105 1 41921U 17003E 25346.88576292 .00000521 00000+0 17905-3 0 9997 2 41921 86.3976 134.7703 0001875 94.0233 266.1177 14.34217702468431 IRIDIUM 104 1 41922U 17003F 25346.99747808 .00000069 00000+0 17740-4 0 9998 2 41922 86.3986 166.2707 0001676 85.1190 275.0197 14.34217908466582 IRIDIUM 114 1 41923U 17003G 25347.00380938 .00000170 00000+0 53740-4 0 9992 2 41923 86.3984 166.2516 0001783 89.7674 270.3726 14.34217243466561 IRIDIUM 108 1 41924U 17003H 25346.96234199 .00000098 00000+0 27923-4 0 9997 2 41924 86.3972 134.6285 0002106 90.6388 269.5049 14.34218221468415 IRIDIUM 112 1 41925U 17003J 25346.99113431 .00000068 00000+0 17061-4 0 9995 2 41925 86.3982 166.1081 0001867 86.2089 273.9320 14.34217673466580 IRIDIUM 111 1 41926U 17003K 25346.97845145 .00000015 00000+0 -18160-5 0 9993 2 41926 86.3989 166.1794 0001818 93.4629 266.6775 14.34217616466563 IRIDIUM 113 1 42803U 17039A 25346.88864725 .00000169 00000+0 53206-4 0 9990 2 42803 86.3976 40.0335 0001993 94.4269 265.7155 14.34218557444484 IRIDIUM 123 1 42804U 17039B 25346.99989311 .00000476 00000+0 16293-3 0 9997 2 42804 86.3965 71.4707 0002069 105.4385 254.7039 14.34220453443263 IRIDIUM 120 1 42805U 17039C 25346.88230565 .00000311 00000+0 10381-3 0 9996 2 42805 86.3964 39.8418 0002478 98.4526 261.6951 14.34217883444479 IRIDIUM 115 1 42806U 17039D 25346.89593390 .00000365 00000+0 10241-3 0 9990 2 42806 86.4500 39.9402 0002451 107.1253 253.0216 14.43277055447397 IRIDIUM 118 1 42807U 17039E 25346.75252541 .00000421 00000+0 14341-3 0 9994 2 42807 86.3965 71.5730 0001934 95.6898 264.4518 14.34216366443226 IRIDIUM 117 1 42808U 17039F 25346.98086612 .00000321 00000+0 10749-3 0 9991 2 42808 86.3971 71.4371 0001988 102.2177 257.9242 14.34218071443280 IRIDIUM 126 1 42809U 17039G 25346.79693129 .00000339 00000+0 11410-3 0 9993 2 42809 86.3969 71.5622 0001900 98.9259 261.2152 14.34218530443237 IRIDIUM 124 1 42810U 17039H 25346.96841809 .00000571 00000+0 16376-3 0 9998 2 42810 86.4496 8.2117 0002286 97.2351 262.9110 14.43277787448252 IRIDIUM 128 1 42811U 17039J 25346.85743843 .00000417 00000+0 14179-3 0 9994 2 42811 86.3966 103.0707 0002288 101.5163 258.6290 14.34217938443275 IRIDIUM 121 1 42812U 17039K 25346.95549658 .00000121 00000+0 36276-4 0 9999 2 42812 86.3965 71.5221 0002190 96.0563 264.0882 14.34218564443138 IRIDIUM 133 1 42955U 17061A 25346.74962644 .00000502 00000+0 17234-3 0 9998 2 42955 86.3968 103.2288 0002076 97.6264 262.5168 14.34216927428058 IRIDIUM 100 1 42956U 17061B 25346.81303499 .00000175 00000+0 55424-4 0 9994 2 42956 86.3962 103.1251 0001973 97.9796 262.1624 14.34216797428069 IRIDIUM 122 1 42957U 17061C 25346.78132645 .00000189 00000+0 60301-4 0 9999 2 42957 86.3965 103.1381 0001996 98.2418 261.9004 14.34218903428067 IRIDIUM 129 1 42958U 17061D 25346.94623372 .00000432 00000+0 14728-3 0 9992 2 42958 86.3962 103.1341 0001809 86.4851 273.6552 14.34218805428108 IRIDIUM 119 1 42959U 17061E 25346.84475078 .00000496 00000+0 16989-3 0 9991 2 42959 86.3967 103.1717 0001775 95.4313 264.7085 14.34220790428104 IRIDIUM 107 1 42960U 17061F 25346.86377875 .00000253 00000+0 83419-4 0 9995 2 42960 86.3967 103.1842 0001536 107.2021 252.9343 14.34221556428116 IRIDIUM 132 1 42961U 17061G 25346.87011722 .00000409 00000+0 13884-3 0 9994 2 42961 86.3964 103.1618 0001958 101.7184 258.4231 14.34216529428113 IRIDIUM 136 1 42962U 17061H 25346.76229648 .00000395 00000+0 13398-3 0 9995 2 42962 86.3967 103.2129 0001892 97.8433 262.2978 14.34220549428112 IRIDIUM 139 1 42963U 17061J 25346.83840914 .00000260 00000+0 85761-4 0 9994 2 42963 86.3967 103.2399 0002054 100.6952 259.4475 14.34219561428136 IRIDIUM 125 1 42964U 17061K 25346.89546239 .00000387 00000+0 13107-3 0 9998 2 42964 86.3967 103.2736 0001530 108.2267 251.9095 14.34213461428153 IRIDIUM 135 1 43070U 17083A 25346.86960936 .00000256 00000+0 84187-4 0 9994 2 43070 86.3968 39.8899 0002227 93.0021 267.1429 14.34221527417442 IRIDIUM 138 1 43071U 17083B 25346.89498940 .00000062 00000+0 14996-4 0 9995 2 43071 86.3984 39.5462 0001782 92.2633 267.8767 14.34218083417433 IRIDIUM 116 1 43072U 17083C 25347.00281312 .00000295 00000+0 98237-4 0 9991 2 43072 86.3972 39.8230 0002482 98.5178 261.6299 14.34216345417484 IRIDIUM 130 1 43073U 17083D 25346.69203313 .00000400 00000+0 13582-3 0 9998 2 43073 86.3977 40.2097 0002399 101.8373 258.3092 14.34217619417387 IRIDIUM 151 1 43074U 17083E 25346.87596248 .00000171 00000+0 54099-4 0 9995 2 43074 86.3969 39.9291 0002222 95.3616 264.7834 14.34218409417431 IRIDIUM 134 1 43075U 17083F 25346.91400880 -.00000166 00000+0 -66398-4 0 9998 2 43075 86.3966 39.9187 0001996 100.5582 259.5838 14.34215479417408 IRIDIUM 137 1 43076U 17083G 25346.71739870 .00000163 00000+0 51076-4 0 9993 2 43076 86.3969 40.0897 0002689 90.9132 269.2372 14.34218605417445 IRIDIUM 141 1 43077U 17083H 25346.85059109 .00000212 00000+0 68643-4 0 9992 2 43077 86.3970 39.8755 0001973 95.6955 264.4466 14.34217791417465 IRIDIUM 153 1 43078U 17083J 25347.01207567 .00000062 00000+0 15019-4 0 9997 2 43078 86.3975 8.2987 0001810 95.9111 264.2291 14.34218772418594 IRIDIUM 131 1 43079U 17083K 25346.90767545 .00000080 00000+0 21364-4 0 9992 2 43079 86.3974 40.0252 0002082 94.0271 266.1163 14.34218164417405 IRIDIUM 144 1 43249U 18030A 25347.01841968 .00000067 00000+0 16734-4 0 9999 2 43249 86.3968 8.2293 0002338 95.6830 264.4632 14.34217910403450 IRIDIUM 149 1 43250U 18030B 25347.02476170 .00000235 00000+0 76763-4 0 9996 2 43250 86.3965 8.1956 0002179 93.7619 266.3826 14.34218540403479 IRIDIUM 157 1 43251U 18030C 25346.97402088 .00000410 00000+0 13930-3 0 9998 2 43251 86.3971 8.2660 0002213 88.2506 271.8943 14.34219109403443 IRIDIUM 140 1 43252U 18030D 25346.99304821 .00000316 00000+0 10568-3 0 9996 2 43252 86.3972 8.2712 0002222 96.0789 264.0660 14.34217164403509 IRIDIUM 145 1 43253U 18030E 25346.98035992 .00000385 00000+0 13034-3 0 9993 2 43253 86.3971 8.2490 0002531 97.4123 262.7360 14.34220677403439 IRIDIUM 146 1 43254U 18030F 25347.03110285 .00000278 00000+0 92186-4 0 9997 2 43254 86.3972 8.2409 0002340 95.4454 264.7008 14.34219445403458 IRIDIUM 148 1 43255U 18030G 25346.99938976 .00000195 00000+0 62392-4 0 9991 2 43255 86.3972 8.2943 0002274 90.2620 269.8837 14.34216987403483 IRIDIUM 142 1 43256U 18030H 25346.96767898 .00000110 00000+0 32065-4 0 9993 2 43256 86.3970 8.2032 0002621 97.4335 262.7159 14.34218094403445 IRIDIUM 150 1 43257U 18030J 25347.00573209 .00000383 00000+0 12971-3 0 9996 2 43257 86.3973 8.2976 0002370 95.6521 264.4945 14.34219582403472 IRIDIUM 143 1 43258U 18030K 25346.98670386 .00000371 00000+0 12548-3 0 9994 2 43258 86.3974 8.3908 0002473 96.6671 263.4807 14.34219801403404 IRIDIUM 161 1 43478U 18047C 25347.01569077 .00000213 00000+0 57190-4 0 9993 2 43478 86.4506 166.2650 0001886 85.1398 275.0018 14.43279552398285 IRIDIUM 152 1 43479U 18047D 25346.95942237 .00000016 00000+0 -12416-5 0 9994 2 43479 86.3981 166.1491 0001818 89.3385 270.8019 14.34217998395794 IRIDIUM 147 1 43480U 18047E 25346.96576423 .00000093 00000+0 26011-4 0 9996 2 43480 86.3982 166.1484 0002018 86.2380 273.9047 14.34217748395791 IRIDIUM 110 1 43481U 18047F 25346.97210471 .00000096 00000+0 27107-4 0 9996 2 43481 86.3984 166.2324 0001652 77.4788 282.6592 14.34217691395783 IRIDIUM 162 1 43482U 18047G 25347.00938513 .00000274 00000+0 75570-4 0 9991 2 43482 86.4503 166.1612 0001758 96.4308 263.7093 14.43277846398278 IRIDIUM 160 1 43569U 18061A 25346.91794403 .00000222 00000+0 72286-4 0 9994 2 43569 86.3977 134.6776 0001884 87.4829 272.6583 14.34218848386678 IRIDIUM 166 1 43570U 18061B 25346.94331336 .00000351 00000+0 11821-3 0 9991 2 43570 86.3976 134.6197 0002154 92.8061 267.3382 14.34217948386707 IRIDIUM 158 1 43571U 18061C 25346.91159862 .00000098 00000+0 27918-4 0 9994 2 43571 86.3972 134.6431 0001741 97.4891 262.6503 14.34219865386666 IRIDIUM 165 1 43572U 18061D 25346.86720086 .00000443 00000+0 15117-3 0 9992 2 43572 86.3975 134.7043 0002124 91.9515 268.1924 14.34219718386685 IRIDIUM 155 1 43573U 18061E 25346.89891666 .00000243 00000+0 79554-4 0 9993 2 43573 86.3972 134.5695 0002047 99.7062 260.4365 14.34218329386659 IRIDIUM 154 1 43574U 18061F 25346.94966069 .00000489 00000+0 16743-3 0 9992 2 43574 86.3976 134.6725 0002034 92.1329 268.0100 14.34223349386714 IRIDIUM 163 1 43575U 18061G 25346.93062556 .00000467 00000+0 15955-3 0 9990 2 43575 86.3970 134.6014 0001822 94.2388 265.9016 14.34216007386683 IRIDIUM 156 1 43576U 18061H 25346.90525735 .00000494 00000+0 16929-3 0 9993 2 43576 86.3972 134.6194 0002113 99.3246 260.8189 14.34220435386672 IRIDIUM 164 1 43577U 18061J 25346.95598968 .00000394 00000+0 13349-3 0 9999 2 43577 86.3975 134.6356 0002129 91.7606 268.3833 14.34224238386729 IRIDIUM 159 1 43578U 18061K 25346.92428681 .00000466 00000+0 15945-3 0 9995 2 43578 86.3971 134.5894 0001986 89.4004 270.7419 14.34218123386686 IRIDIUM 180 1 43922U 19002A 25346.99355197 .00000163 00000+0 51136-4 0 9999 2 43922 86.3966 71.4352 0001990 93.8742 266.2682 14.34218496362302 IRIDIUM 176 1 43923U 19002B 25346.72357768 .00001769 00000+0 27672-3 0 9997 2 43923 86.6087 71.5187 0002272 94.9562 265.1915 14.72244073371818 IRIDIUM 168 1 43924U 19002C 25346.98720594 .00000456 00000+0 15592-3 0 9997 2 43924 86.3967 71.5099 0002039 97.3582 262.7845 14.34220753362288 IRIDIUM 173 1 43925U 19002D 25346.76521679 .00000403 00000+0 13675-3 0 9999 2 43925 86.3966 71.4989 0001900 102.2124 257.9284 14.34217547362234 IRIDIUM 169 1 43926U 19002E 25346.84278077 .00000640 00000+0 20276-3 0 9998 2 43926 86.4221 103.1178 0001915 127.1508 232.9865 14.38605269363438 IRIDIUM 172 1 43927U 19002F 25346.96818040 .00000239 00000+0 78399-4 0 9996 2 43927 86.3965 71.4216 0001972 92.6361 267.5060 14.34218859362272 IRIDIUM 175 1 43928U 19002G 25346.78680809 .00001428 00000+0 22256-3 0 9998 2 43928 86.1505 13.8953 0003177 92.1615 267.9966 14.72247205371813 IRIDIUM 171 1 43929U 19002H 25346.73984854 .00000320 00000+0 10725-3 0 9999 2 43929 86.3975 71.8031 0002339 100.2549 259.8911 14.34217666362236 IRIDIUM 170 1 43930U 19002J 25346.79771708 .00001745 00000+0 27278-3 0 9992 2 43930 86.6087 71.4912 0002250 91.0604 269.0871 14.72262973371837 IRIDIUM 167 1 43931U 19002K 25346.94281174 .00000173 00000+0 54741-4 0 9993 2 43931 86.3966 71.4531 0002427 106.7834 253.3629 14.34218582362262 IRIDIUM 181 1 56726U 23068S 25346.95704165 .00000645 00000+0 18574-3 0 9994 2 56726 86.4511 134.6348 0002413 85.4691 274.6786 14.43306550135577 IRIDIUM 177 1 56727U 23068T 25346.74212813 .00001144 00000+0 14710-3 0 9999 2 56727 86.1966 57.3289 0002375 85.1718 274.9774 14.80221259138787 IRIDIUM 174 1 56728U 23068U 25346.98925889 .00002754 00000+0 43281-3 0 9993 2 56728 86.6095 71.5402 0002216 87.0423 273.1048 14.72250095138628 IRIDIUM 178 1 56729U 23068V 25346.86644928 .00002168 00000+0 28184-3 0 9997 2 56729 86.6535 103.2454 0002550 99.0268 261.1242 14.80234491138803 IRIDIUM 179 1 56730U 23068W 25346.92867699 .00003527 00000+0 46071-3 0 9993 2 56730 86.6772 111.6432 0002322 88.7807 271.3680 14.80225812138815